Paynesville, MN

7:08 AM CDT on July 23, 2017 (GMT -0500)
Paynesville

Weather History for KPEX - June, 2012

Change the Weather History Date:

Monday, June 25, 2012

  Actual Average (KLJF) Record (KLJF)
Temperature  
Mean Temperature 66 °F -  
Max Temperature 76 °F 82 °F 101 °F (1988)
Min Temperature 56 °F 59 °F 42 °F (1958)
Cooling Degree Days 1    
Growing Degree Days 16 (Base 50)    
Moisture  
Dew Point 50 °F    
Average Humidity 55    
Maximum Humidity 92    
Minimum Humidity 32    
Precipitation  
Precipitation 0.00 in - - ()
Sea Level Pressure  
Sea Level Pressure 30.12 in    
Wind  
Wind Speed 5 mph (ESE)    
Max Wind Speed 15 mph    
Max Gust Speed 20 mph    
Visibility 8 miles    
Events      
Averages and records for this station are not official NWS values.
T = Trace of Precipitation, MM = Missing Value Source: NWS Daily Summary

Daily Weather History Graph

Daily Weather History Graph

Search for Another Location

Airport or City:

Trip Planner

Search our weather history database for the weather conditions in past years. The results will help you decide how hot, cold, wet, or windy it might be!

Date:

Astronomy

Jun. 25, 2012 Rise Set
Actual Time 5:32 AM CDT 9:11 PM CDT
Civil Twilight 4:54 AM CDT 9:49 PM CDT
Nautical Twilight 4:03 AM CDT 10:39 PM CDT
Astronomical Twilight 2:55 AM CDT 11:47 PM CDT
Moon 12:02 PM CDT (6/25) No Moon Set
Length of Visible Light 16h 54m
Length of Day
15h 39m
Waxing Crescent, 34% of the Moon is Illuminated
Jun 25
Waxing Crescent
Jun 26
First Quarter
Jul 3
Full
Jul 10
Last Quarter
Jul 18
New

Hourly Weather History & Observations

Time (CDT) Temp. Dew Point Humidity Pressure Visibility Wind Dir Wind Speed Gust Speed Precip Events Conditions
12:14 AM 66.2 °F 56.3 °F 70% 30.13 in 7.0 mi Calm Calm - N/A   Clear
12:33 AM 62.8 °F 57.6 °F 83% 30.13 in 7.0 mi Calm Calm - N/A   Clear
12:53 AM 63.7 °F 57.2 °F 79% 30.12 in 7.0 mi ENE 5.8 mph - N/A   Clear
1:14 AM 63.5 °F 56.3 °F 77% 30.13 in 7.0 mi NE 4.6 mph - N/A   Clear
1:33 AM 63.9 °F 55.0 °F 73% 30.13 in 7.0 mi ENE 4.6 mph - N/A   Clear
1:54 AM 61.2 °F 55.6 °F 82% 30.14 in 10.0 mi NE 3.5 mph - N/A   Clear
2:13 AM 61.0 °F 55.4 °F 82% 30.14 in 7.0 mi Calm Calm - N/A   Clear
2:34 AM 59.9 °F 55.4 °F 85% 30.14 in 5.0 mi NE 3.5 mph - N/A   Haze
2:53 AM 59.2 °F 55.2 °F 87% 30.14 in 10.0 mi NE 3.5 mph - N/A   Clear
3:13 AM 58.6 °F 55.0 °F 88% 30.15 in 7.0 mi Calm Calm - N/A   Clear
3:34 AM 57.7 °F 55.2 °F 91% 30.15 in 10.0 mi Calm Calm - N/A   Clear
3:53 AM 56.8 °F 54.7 °F 92% 30.15 in 7.0 mi Calm Calm - N/A   Clear
4:14 AM 57.2 °F 54.5 °F 91% 30.16 in 7.0 mi Calm Calm - N/A   Clear
4:33 AM 56.7 °F 54.1 °F 91% 30.16 in 10.0 mi Calm Calm - N/A   Clear
4:54 AM 56.3 °F 53.6 °F 91% 30.16 in 7.0 mi Calm Calm - N/A   Clear
5:14 AM 59.0 °F 52.2 °F 78% 30.16 in 10.0 mi East 3.5 mph - N/A   Clear
5:53 AM 59.4 °F 51.3 °F 75% 30.17 in 10.0 mi East 3.5 mph - N/A   Clear
6:14 AM 59.4 °F 51.4 °F 75% 30.18 in 10.0 mi East 4.6 mph - N/A   Clear
6:33 AM 60.3 °F 51.4 °F 73% 30.18 in 10.0 mi Calm Calm - N/A   Clear
6:54 AM 61.2 °F 51.3 °F 70% 30.18 in 10.0 mi East 5.8 mph - N/A   Clear
7:13 AM 62.1 °F 50.7 °F 66% 30.18 in 10.0 mi East 6.9 mph - N/A   Clear
7:34 AM 63.1 °F 49.8 °F 62% 30.18 in 10.0 mi East 8.1 mph - N/A   Clear
7:53 AM 63.7 °F 49.6 °F 60% 30.19 in 10.0 mi ESE 9.2 mph - N/A   Clear
8:14 AM 64.4 °F 49.6 °F 59% 30.19 in 10.0 mi ESE 8.1 mph - N/A   Clear
8:33 AM 65.3 °F 49.8 °F 57% 30.19 in 10.0 mi SE 11.5 mph - N/A   Clear
8:53 AM 66.2 °F 47.7 °F 51% 30.19 in 10.0 mi ESE 8.1 mph - N/A   Clear
9:14 AM 67.1 °F 47.5 °F 49% 30.20 in 10.0 mi ESE 10.4 mph - N/A   Clear
9:34 AM 68.2 °F 46.6 °F 46% 30.19 in 10.0 mi ESE 12.7 mph - N/A   Clear
9:54 AM 68.5 °F 46.4 °F 45% 30.20 in 10.0 mi SE 10.4 mph - N/A   Clear
10:13 AM 69.3 °F 47.3 °F 45% 30.19 in 10.0 mi ESE 11.5 mph - N/A   Clear
10:33 AM 70.0 °F 46.0 °F 42% 30.18 in 10.0 mi ESE 9.2 mph 18.4 mph N/A   Clear
10:54 AM 70.3 °F 45.7 °F 41% 30.18 in 10.0 mi ESE 10.4 mph 19.6 mph N/A   Clear
11:13 AM 70.9 °F 45.1 °F 40% 30.18 in 10.0 mi ESE 15.0 mph 18.4 mph N/A   Clear
11:34 AM 71.4 °F 45.5 °F 39% 30.18 in 10.0 mi East 12.7 mph 18.4 mph N/A   Clear
11:54 AM 71.6 °F 45.7 °F 39% 30.17 in 10.0 mi SE 10.4 mph - N/A   Clear
12:13 PM 72.1 °F 46.8 °F 40% 30.17 in 10.0 mi SSE 6.9 mph 16.1 mph N/A   Clear
12:34 PM 72.7 °F 46.0 °F 39% 30.17 in 10.0 mi ESE 9.2 mph - N/A   Clear
12:54 PM 73.4 °F 46.4 °F 38% 30.16 in 10.0 mi SE 9.2 mph - N/A   Clear
1:13 PM 73.4 °F 45.9 °F 37% 30.15 in 10.0 mi ESE 9.2 mph 18.4 mph N/A   Clear
1:33 PM 73.9 °F 45.1 °F 36% 30.14 in 10.0 mi ESE 8.1 mph - N/A   Clear
1:53 PM 74.3 °F 45.9 °F 36% 30.13 in 10.0 mi SE 10.4 mph - N/A   Clear
2:14 PM 74.3 °F 45.7 °F 36% 30.13 in 7.0 mi SE 10.4 mph - N/A   Clear
2:33 PM 75.2 °F 44.8 °F 34% 30.12 in 5.0 mi SE 8.1 mph - N/A   Haze
2:53 PM 75.6 °F 46.8 °F 36% 30.11 in 5.0 mi SE 10.4 mph - N/A   Haze
3:14 PM 75.7 °F 45.5 °F 34% 30.11 in 5.0 mi East 9.2 mph - N/A   Haze
3:33 PM 75.7 °F 46.0 °F 35% 30.11 in 4.0 mi East 9.2 mph - N/A   Haze
3:53 PM 76.1 °F 44.4 °F 32% 30.10 in 4.0 mi SE 9.2 mph - N/A   Haze
4:14 PM 76.1 °F 46.8 °F 35% 30.10 in 5.0 mi ESE 8.1 mph - N/A   Haze
4:34 PM 76.1 °F 46.2 °F 35% 30.10 in 7.0 mi ESE 9.2 mph - N/A   Clear
4:53 PM 76.3 °F 47.5 °F 36% 30.09 in 4.0 mi ESE 10.4 mph - N/A   Haze
5:14 PM 75.7 °F 47.3 °F 36% 30.09 in 5.0 mi SE 6.9 mph - N/A   Haze
5:33 PM 75.7 °F 47.5 °F 37% 30.08 in 5.0 mi ESE 9.2 mph - N/A   Haze
5:53 PM 75.4 °F 48.2 °F 38% 30.08 in 7.0 mi SE 6.9 mph - N/A   Clear
6:14 PM 74.7 °F 49.3 °F 41% 30.07 in 7.0 mi SE 8.1 mph - N/A   Clear
6:34 PM 75.2 °F 48.4 °F 39% 30.06 in 5.0 mi SE 8.1 mph - N/A   Haze
6:53 PM 74.5 °F 49.1 °F 41% 30.06 in 5.0 mi ESE 5.8 mph - N/A   Haze
7:14 PM 73.8 °F 48.7 °F 41% 30.04 in 5.0 mi ESE 8.1 mph - N/A   Haze
7:33 PM 72.5 °F 49.1 °F 44% 30.04 in 7.0 mi ESE 6.9 mph - N/A   Clear
7:54 PM 70.9 °F 48.9 °F 46% 30.04 in 7.0 mi ESE 5.8 mph - N/A   Clear
8:13 PM 70.9 °F 49.1 °F 46% 30.03 in 7.0 mi ESE 6.9 mph - N/A   Clear
8:34 PM 70.5 °F 49.8 °F 48% 30.02 in 7.0 mi East 6.9 mph - N/A   Clear
8:53 PM 69.6 °F 49.5 °F 49% 30.01 in 5.0 mi East 5.8 mph - N/A   Haze
9:14 PM 68.0 °F 49.6 °F 52% 30.02 in 7.0 mi ESE 5.8 mph - N/A   Clear
9:34 PM 67.1 °F 49.5 °F 53% 30.03 in 7.0 mi SE 4.6 mph - N/A   Clear
9:54 PM 67.6 °F 49.8 °F 53% 30.03 in 10.0 mi ESE 4.6 mph - N/A   Clear
10:14 PM 67.1 °F 50.0 °F 54% 30.04 in 10.0 mi SE 4.6 mph - N/A   Clear
10:33 PM 66.2 °F 50.5 °F 57% 30.04 in 10.0 mi ESE 4.6 mph - N/A   Clear
10:53 PM 64.8 °F 50.5 °F 60% 30.04 in 10.0 mi ESE 3.5 mph - N/A   Clear
11:34 PM 65.5 °F 50.4 °F 58% 30.05 in 10.0 mi SE 5.8 mph - N/A   Clear
11:53 PM 65.7 °F 50.0 °F 57% 30.05 in 7.0 mi SE 6.9 mph - N/A   Clear